Location: *
(40.9167°N, 9.5000°E)
Time: 21:09:56
(UTC+00:00)

Terra - Pass Details

Date: 09 April 2020
Orbit: 701 x 703 km, 98.2° (Epoch: 31 May)

Event Time Altitude Azimuth Distance (km) Brightness Sun altitude
Exits shadow 22:08:31 18° 317° (NW) 1,701 4.3 -38.1°
Drops below altitude 10° 22:09:56 10° 328° (NNW) 2,178 5.1 -38.2°
Sets 22:12:24 0° 338° (NNW) 3,102 6.1 -38.4°
